Tobias Bolanos Internatio, Costa Rica

12:49 PM CST on July 26, 2017 (GMT -0600)
Tobias Bolanos International

Weather History for MRPV - July, 2013

Change the Weather History Date:

Thursday, July 4, 2013

  Actual Average Record
Temperature  
Mean Temperature 74 °F -  
Max Temperature 83 °F 78 °F 86 °F (2002)
Min Temperature 66 °F 68 °F 64 °F (2011)
Cooling Degree Days 10    
Growing Degree Days 24 (Base 50)    
Moisture  
Dew Point 66 °F    
Average Humidity 78    
Maximum Humidity 100    
Minimum Humidity 48    
Precipitation  
Precipitation 0.47 in - - ()
Sea Level Pressure  
Sea Level Pressure 30.04 in    
Wind  
Wind Speed 6 mph ()    
Max Wind Speed 14 mph    
Max Gust Speed -    
Visibility 5.0 miles    
Events Rain , Thunderstorm    
Averages and records for this station are not official NWS values.
T = Trace of Precipitation, MM = Missing Value Source: Averaged Metar Reports

Daily Weather History Graph

Daily Weather History Graph

Search for Another Location

Airport or City:

Trip Planner

Search our weather history database for the weather conditions in past years. The results will help you decide how hot, cold, wet, or windy it might be!

Date:

Astronomy

Jul. 04, 2013 Rise Set
Actual Time 5:20 AM CST 6:01 PM CST
Civil Twilight 4:57 AM CST 6:24 PM CST
Nautical Twilight 4:30 AM CST 6:51 PM CST
Astronomical Twilight 4:03 AM CST 7:18 PM CST
Moon 2:23 AM CST (7/4) 3:15 PM CST (7/4)
Length of Visible Light 13h 27m
Length of Day
12h 41m
Waning Crescent, 11% of the Moon is Illuminated
Jul 4
Waning Crescent
Jul 8
New
Jul 15
First Quarter
Jul 22
Full
Jul 29
Last Quarter

Hourly Weather History & Observations

Time (CST) Temp. Heat Index Dew Point Humidity Pressure Visibility Wind Dir Wind Speed Gust Speed Precip Events Conditions
6:00 AM 67 °F - 66 °F 96%  in 5 mi East 2.3 mph - -   Scattered Clouds
6:00 AM 66.2 °F - 66.2 °F 100% 30.07 in 5.0 mi East 2.3 mph - N/A   Mostly Cloudy
7:00 AM 69.8 °F - 64.4 °F 83% 30.07 in 5.0 mi East 3.5 mph - N/A   Mostly Cloudy
8:00 AM 75.2 °F - 62.6 °F 65% 30.08 in 6.2 mi East 8.1 mph - N/A   Mostly Cloudy
9:00 AM 78 °F - 63 °F 50%  in 6 mi ESE 10.4 mph - -   Scattered Clouds
9:00 AM 78.8 °F - 62.6 °F 57% 30.08 in 6.2 mi ESE 10.4 mph - N/A   Mostly Cloudy
10:00 AM 80.6 °F 81.5 °F 60.8 °F 51% 30.08 in 6.2 mi NE 8.1 mph - N/A   Mostly Cloudy
11:00 AM 82.4 °F 82.9 °F 60.8 °F 48% 30.06 in 6.2 mi ENE 9.2 mph - N/A   Mostly Cloudy
11:10 AM 78.8 °F - 68.0 °F 69% 30.05 in 6.2 mi WSW 4.6 mph - N/A   Scattered Clouds
12:00 PM 78 °F - 68 °F 63%  in 6 mi WNW 10.4 mph - -   Mostly Cloudy
12:00 PM 77.0 °F - 68.0 °F 74% 30.05 in 6.2 mi WNW 10.4 mph - N/A   Mostly Cloudy
12:17 PM 78.8 °F - 68.0 °F 69% 30.05 in 6.2 mi SSW 2.3 mph - N/A Rain Rain
1:00 PM 77.0 °F - 69.8 °F 78% 30.03 in 6.2 mi West 8.1 mph - N/A   Mostly Cloudy
2:00 PM 73.4 °F - 68.0 °F 83% 30.01 in 3.7 mi West 9.2 mph - N/A Rain , Thunderstorm Light Rain Showers
2:22 PM 73.4 °F - 68.0 °F 83% 30.01 in 2.5 mi West 6.9 mph - N/A Rain , Thunderstorm Rain Showers
2:30 PM 73.4 °F - 68.0 °F 83% 30.01 in 0.9 mi East 9.2 mph - N/A Rain Rain Showers
2:48 PM 69.8 °F - 68.0 °F 94% 30.01 in 3.1 mi WNW 5.8 mph - N/A Rain Rain Showers
3:00 PM 70 °F - 67 °F 88%  in 2 mi East 8.1 mph - - Rain , Thunderstorm Thunderstorms and Rain
3:00 PM 69.8 °F - 68.0 °F 94% 30.02 in 2.5 mi East 8.1 mph - N/A Rain , Thunderstorm Thunderstorms and Rain
3:17 PM 68.0 °F - 66.2 °F 94% 30.02 in 3.1 mi East 13.8 mph - N/A Rain , Thunderstorm Thunderstorms and Rain
3:33 PM 68.0 °F - 66.2 °F 94% 30.01 in 6.2 mi East 10.4 mph - N/A Rain Rain
4:00 PM 68.0 °F - 66.2 °F 94% 30.01 in 6.2 mi SE 5.8 mph - N/A Rain Rain
5:00 PM 71.6 °F - 66.2 °F 83% 30.02 in 6.2 mi ESE 6.9 mph - N/A Rain Rain Showers
6:00 PM 72 °F - 64 °F 70%  in 6 mi East 5.8 mph - -   Scattered Clouds
6:00 PM 71.6 °F - 64.4 °F 78% 30.05 in 6.2 mi ESE 5.8 mph - N/A   Scattered Clouds